IRIDIUM 33 DEB, 38474

Orbit data source: Space-Track

IRIDIUM 33 DEB, 38474 is space debris in LEO originally from a launch on Sun, 14 Sep 1997 UTC launched from the Tyuratam Missile And Space Complex (TTMTR). The debris from Iridium 33, an American commercial communications satellite, has been tracked extensively since its accidental collision with the defunct Russian satellite Cosmos 2251 in 2009. This event, occurring at high speed in low Earth orbit (LEO), generated thousands of pieces of space debris, significantly increasing the risk of further collisions. The Iridium 33 debris cloud has impacted space traffic management and orbital debris mitigation strategies, making it a subject of ongoing study in space situational awareness.

Loading next visibility...
Identifier
38474, 1997-051AAB
Orbit
LEO
Country
Flag of USUS
Related business
Manufacturer
Unknown
Mission
Spacecraft
Bus & Motor
Unknown
Mass
Unknown
Launch date (UTC)
1997-09-14 (29 years ago)
Launch vehicle
Unknown
Launch site
Tyuratam Missile And Space Complex (TTMTR)
Object type
Payload
Rocket body
Debris
Shape & HBR
Unknown shape, 0.1 m
Radar Cross Section
Small (<0.1 m²)

Expand to show TLE details & history
Last TLE update: 5 days ago

TLE from 5 days ago
0 IRIDIUM 33 DEB
1 38474U 97051AAB 26204.46238144  .00001576  00000-0  38609-3 0  9992
2 38474  86.3402 272.9181 0027044  64.7179 295.6824 14.51666677685488
Epoch: 2026-07-23T11:05Z
TLE epoch observation values (Epoch: 2026-07-23T11:05:49.756Z)
Latitude
-0.00003°
Longitude
165.25776°
Altitude
715.006 km
Speed
7.502 km/s
True Right ascension
18h 11m 40s
True Declination
0° 00' 00"
Sunlit
Object was in full shadow at epoch
Visualization orbit readout
Latitude
Unknown
Longitude
Unknown
Altitude
Unknown
Speed
Unknown
Apparent Right ascension
Unknown
Apparent Declination
Unknown
Sunlit
N/A
Visualization observer readout
Local Sidereal Time
21:17:17
Azimuth
Unknown
Elevation
Unknown
Doppler factor
Unknown
Orbital elements
Apogee altitude
736.34 km
Perigee altitude
697.963 km
Semi-major axis
7,095.288 km
Eccentricity
0.0027
Inclination
86.3402°
RAAN
272.9181°
Arg. of periapsis
64.7179°
True anomaly
295.40271°
Mean anomaly
295.6824°
Eccentric anomaly
295.54259°
Mean motion
3.63152 °/min
Orbital period
99.13 mins
BSTAR
0.00038609
Loading maneuver chart data...
Computing Atmospheric mass density...
Loading historical data...
Loading historical data...
Loading historical data...
Loading historical data...
Loading historical data...
Loading historical data...
Loading historical data...

Documentation

Showing up to 5 results
|